Date String (YYYY-MM-DD hh:mm:ss) UTC,Instrument flags,Ambient pressure (hPa),Sample flow (lpm),Bypass flow (lpm),Sample temperature (°C),Ambient temperature (°C),ASC tube jacket temperature (°C),LED temperature (°C),Box temperature (°C),Sample RH (%),Span deviation,Mass concentration (μg/m³),Mass concentration (μg/m³),Mass concentration (μg/m³)
DateTimeUTC,F1_M11,P_M11,Q1_M11,Q2_M11,T1_M11,T2_M11,T3_M11,T4_M11,T5_M11,U1_M11,ZSPAN_M11,X0_M11,X2_M11,X1_M11
2022-05-27 03:00:00,,0826.6,5.01,0.00,29.7,28.8,00.0,38.5,31.7,14.5,0000.0,0012.26,0003.83,0002.84
2022-05-27 03:01:00,,0826.6,4.99,0.00,29.7,28.2,00.0,38.4,31.5,14.4,0000.0,0011.81,0003.82,0002.81
2022-05-27 03:02:00,,0826.6,5.01,0.00,29.6,27.5,00.0,38.3,31.3,14.4,0000.0,0011.46,0003.78,0002.78
2022-05-27 03:03:00,,0826.6,4.99,0.00,29.5,27.3,00.0,38.3,31.2,14.1,0000.0,0011.28,0003.76,0002.73
2022-05-27 03:04:00,,0826.6,5.01,0.00,29.5,27.3,00.0,38.3,31.1,13.5,0000.0,0010.97,0003.71,0002.67
2022-05-27 03:05:00,,0826.6,5.00,0.00,29.4,27.4,00.0,38.3,31.1,13.1,0000.0,0010.72,0003.66,0002.63
2022-05-27 03:06:00,,0826.6,4.99,0.00,29.4,27.6,00.0,38.3,31.2,12.8,0000.0,0010.62,0003.57,0002.57
2022-05-27 03:07:00,,0826.6,5.00,0.00,29.4,27.8,00.0,38.3,31.2,12.7,0000.0,0010.16,0003.50,0002.50
2022-05-27 03:08:00,,0826.6,5.01,0.00,29.4,27.9,00.0,38.3,31.3,12.6,0000.0,0010.09,0003.45,0002.43
2022-05-27 03:09:00,,0826.6,5.01,0.00,29.4,28.1,00.0,38.3,31.3,12.5,0000.0,0010.04,0003.41,0002.36
2022-05-27 03:10:00,,0826.6,5.00,0.00,29.5,28.2,00.0,38.3,31.4,12.6,0000.0,0009.66,0003.37,0002.30
2022-05-27 03:11:00,,0826.6,5.00,0.00,29.5,28.3,00.0,38.3,31.4,12.5,0000.0,0008.81,0003.33,0002.24
2022-05-27 03:12:00,,0826.7,5.00,0.00,29.5,28.4,00.0,38.3,31.4,12.4,0000.0,0008.19,0003.28,0002.17
2022-05-27 03:13:00,,0826.7,5.00,0.00,29.5,28.5,00.0,38.4,31.5,12.2,0000.0,0007.99,0003.18,0002.09
2022-05-27 03:14:00,,0826.7,5.00,0.00,29.6,28.6,00.0,38.4,31.5,12.2,0000.0,0007.83,0003.09,0002.03
2022-05-27 03:15:00,,0826.7,5.01,0.00,29.6,28.7,00.0,38.4,31.6,12.1,0000.0,0007.85,0003.04,0001.99
2022-05-27 03:16:00,,0826.7,5.00,0.00,29.6,28.7,00.0,38.4,31.6,12.1,0000.0,0007.76,0003.00,0001.97
2022-05-27 03:17:00,,0826.7,5.00,0.00,29.7,28.8,00.0,38.4,31.6,12.0,0000.0,0007.12,0002.96,0001.92
2022-05-27 03:18:00,,0826.7,4.99,0.00,29.7,28.9,00.0,38.5,31.7,11.8,0000.0,0006.90,0002.94,0001.90
2022-05-27 03:19:00,,0826.7,5.00,0.00,29.7,28.3,00.0,38.4,31.5,11.7,0000.0,0005.54,0002.87,0001.88
2022-05-27 03:20:00,,0826.7,5.01,0.00,29.6,27.5,00.0,38.4,31.3,11.8,0000.0,0004.97,0002.75,0001.85
2022-05-27 03:21:00,,0826.7,5.00,0.00,29.5,27.3,00.0,38.3,31.2,12.1,0000.0,0005.07,0002.70,0001.83
2022-05-27 03:22:00,,0826.7,5.00,0.00,29.5,27.3,00.0,38.3,31.1,12.6,0000.0,0005.03,0002.63,0001.81
2022-05-27 03:23:00,,0826.8,5.00,0.00,29.4,27.4,00.0,38.3,31.1,12.4,0000.0,0004.88,0002.62,0001.79
2022-05-27 03:24:00,,0826.8,5.00,0.00,29.4,27.6,00.0,38.3,31.2,12.2,0000.0,0005.30,0002.63,0001.78
2022-05-27 03:25:00,,0826.8,5.00,0.00,29.4,27.7,00.0,38.3,31.2,12.0,0000.0,0005.51,0002.68,0001.77
2022-05-27 03:26:00,,0826.8,5.01,0.00,29.4,27.9,00.0,38.3,31.3,11.9,0000.0,0006.24,0002.62,0001.76
2022-05-27 03:27:00,,0826.8,4.99,0.00,29.4,28.0,00.0,38.3,31.3,12.0,0000.0,0006.33,0002.63,0001.74
2022-05-27 03:28:00,,0826.8,4.99,0.00,29.5,28.2,00.0,38.3,31.3,12.1,0000.0,0006.17,0002.60,0001.74
2022-05-27 03:29:00,,0826.8,5.00,0.00,29.5,28.3,00.0,38.3,31.4,12.0,0000.0,0006.10,0002.56,0001.72
2022-05-27 03:30:00,,0826.8,5.00,0.00,29.5,28.4,00.0,38.3,31.4,12.0,0000.0,0006.15,0002.61,0001.72
2022-05-27 03:31:00,,0826.9,5.01,0.00,29.5,28.5,00.0,38.4,31.4,12.0,0000.0,0006.47,0002.67,0001.72
2022-05-27 03:32:00,,0826.8,5.01,0.00,29.5,28.5,00.0,38.4,31.5,11.9,0000.0,0007.20,0002.68,0001.70
2022-05-27 03:33:00,,0826.9,5.01,0.00,29.6,28.6,00.0,38.4,31.5,11.9,0000.0,0007.06,0002.68,0001.71
2022-05-27 03:34:00,,0826.9,4.99,0.00,29.6,28.7,00.0,38.4,31.5,11.8,0000.0,0007.04,0002.63,0001.71
2022-05-27 03:35:00,,0826.8,5.00,0.00,29.6,28.7,00.0,38.4,31.6,11.8,0000.0,0006.70,0002.62,0001.72
2022-05-27 03:36:00,,0826.9,5.00,0.00,29.7,28.8,00.0,38.4,31.6,11.7,0000.0,0006.80,0002.60,0001.71
2022-05-27 03:37:00,,0826.8,5.00,0.00,29.7,28.8,00.0,38.5,31.6,11.7,0000.0,0006.98,0002.59,0001.69
2022-05-27 03:38:00,,0826.9,5.00,0.00,29.7,28.9,00.0,38.5,31.7,11.8,0000.0,0007.43,0002.62,0001.69
2022-05-27 03:39:00,,0826.9,5.00,0.00,29.7,28.6,00.0,38.5,31.6,11.7,0000.0,0007.46,0002.60,0001.69
2022-05-27 03:40:00,,0826.8,4.99,0.00,29.7,27.7,00.0,38.4,31.3,11.9,0000.0,0007.49,0002.62,0001.69
2022-05-27 03:41:00,,0826.8,5.00,0.00,29.6,27.3,00.0,38.4,31.2,11.9,0000.0,0007.57,0002.65,0001.69
2022-05-27 03:42:00,,0826.8,5.00,0.00,29.5,27.3,00.0,38.4,31.1,12.0,0000.0,0007.50,0002.63,0001.70
2022-05-27 03:43:00,,0826.9,5.00,0.00,29.5,27.4,00.0,38.3,31.1,12.2,0000.0,0006.74,0002.61,0001.70
2022-05-27 03:44:00,,0826.8,4.99,0.00,29.4,27.5,00.0,38.3,31.2,12.0,0000.0,0007.60,0002.60,0001.69
2022-05-27 03:45:00,,0826.9,5.00,0.00,29.4,27.6,00.0,38.3,31.2,11.7,0000.0,0007.98,0002.59,0001.69
2022-05-27 03:46:00,,0826.9,5.00,0.00,29.4,27.8,00.0,38.3,31.2,11.9,0000.0,0008.02,0002.59,0001.67
2022-05-27 03:47:00,,0826.9,5.01,0.00,29.4,27.9,00.0,38.3,31.3,12.0,0000.0,0007.80,0002.61,0001.66
2022-05-27 03:48:00,,0826.9,5.01,0.00,29.4,28.1,00.0,38.3,31.3,12.0,0000.0,0007.41,0002.63,0001.67
2022-05-27 03:49:00,,0826.9,5.00,0.00,29.5,28.2,00.0,38.3,31.3,11.8,0000.0,0006.56,0002.61,0001.66
2022-05-27 03:50:00,,0826.9,5.00,0.00,29.5,28.3,00.0,38.3,31.3,11.8,0000.0,0006.52,0002.56,0001.65
2022-05-27 03:51:00,,0827.0,4.99,0.00,29.5,28.4,00.0,38.4,31.4,11.9,0000.0,0007.23,0002.59,0001.66
2022-05-27 03:52:00,,0826.9,5.00,0.00,29.5,28.4,00.0,38.4,31.4,11.8,0000.0,0007.76,0002.58,0001.65
2022-05-27 03:53:00,,0827.0,4.99,0.00,29.5,28.5,00.0,38.4,31.4,11.6,0000.0,0007.81,0002.57,0001.62
2022-05-27 03:54:00,,0826.9,5.00,0.00,29.6,28.6,00.0,38.4,31.5,11.7,0000.0,0007.92,0002.60,0001.63
2022-05-27 03:55:00,,0826.9,5.00,0.00,29.6,28.6,00.0,38.4,31.5,11.4,0000.0,0007.41,0002.61,0001.63
2022-05-27 03:56:00,,0826.9,5.01,0.00,29.6,28.7,00.0,38.4,31.5,11.4,0000.0,0006.54,0002.64,0001.62
2022-05-27 03:57:00,,0827.0,4.99,0.00,29.6,28.7,00.0,38.4,31.6,11.4,0000.0,0006.55,0002.66,0001.62
2022-05-27 03:58:00,,0826.9,4.99,0.00,29.7,28.7,00.0,38.5,31.6,11.5,0000.0,0006.48,0002.60,0001.62
2022-05-27 03:59:00,,0826.9,5.02,0.00,29.7,28.8,00.0,38.5,31.6,11.6,0000.0,0006.39,0002.57,0001.62
